Orbital Elements at Epoch 2459000.5 (2020-May-31.0) TDB
Reference: JPL 16 (heliocentric ecliptic J2000)
Element | Value | Uncertainty (1-sigma) | Units |
e | .09686235532447569 | 9.4501e-08 | |
a | 2.526775949146777 | 1.5854e-08 | au |
q | 2.282026479335182 | 2.4051e-07 | au |
i | 3.753393447643764 | 4.3568e-06 | deg |
node | 244.9934759953726 | 9.0176e-05 | deg |
peri | 328.8355090189393 | 0.00010301 | deg |
M | 49.4091697261866 | 5.4739e-05 | deg |
tp | 2458799.149095979376 (2019-Nov-11.64909598) | 0.0002227 | TDB |
period | 1467.062204224966 4.02 | 1.3807e-05 3.78e-08 | d yr |
n | .2453883679664315 | 2.3095e-09 | deg/d |
Q | 2.771525418958371 | 1.739e-08 | au |
|
| | Orbit Determination Parameters
Additional Information
|